This is the latest recevied weather packets stored in our database for station/object K4CRS-13. If no packets are shown the sender has not sent any weather packets the latest 10 day(s).
| Time | Temp. | Humidity | Pressure | Rain* | Wind** | Luminosity | Snow |
|---|---|---|---|---|---|---|---|
| 1778001193 | 23.89° C | 60% | 1048.7 hPa | 0 mm | - | 961 W/m² | - |
| 1778000889 | 23.33° C | 58% | 1048.7 hPa | 0 mm | - | 830 W/m² | - |
| 1778000586 | 22.78° C | 62% | 1048.7 hPa | 0 mm | - | 700 W/m² | - |
| 1778000281 | 22.22° C | 62% | 1048.9 hPa | 0 mm | - | 591 W/m² | - |
| 1777999977 | 21.67° C | 62% | 1048.7 hPa | 0 mm | - | 368 W/m² | - |
| 1777999673 | 21.67° C | 61% | 1048.8 hPa | 0 mm | - | 307 W/m² | - |
| 1777999371 | 21.67° C | 60% | 1048.8 hPa | 0 mm | - | 290 W/m² | - |
| 1777999069 | 21.67° C | 57% | 1048.9 hPa | 0 mm | - | 315 W/m² | - |
| 1777998767 | 22.22° C | 57% | 1048.9 hPa | 0 mm | - | 345 W/m² | - |
| 1777998464 | 22.78° C | 58% | 1049.1 hPa | 0 mm | - | 372 W/m² | - |
| 1777998161 | 23.33° C | 59% | 1048.9 hPa | 0 mm | - | 443 W/m² | - |
| 1777997857 | 23.33° C | 59% | 1049.1 hPa | 0 mm | - | 399 W/m² | - |
| 1777997556 | 23.33° C | 61% | 1049 hPa | 0 mm | - | 428 W/m² | - |
| 1777997253 | 22.78° C | 60% | 1048.9 hPa | 0 mm | - | 578 W/m² | - |
| 1777996950 | 23.33° C | 58% | 1048.6 hPa | 0 mm | - | 574 W/m² | - |
| 1777996647 | 23.33° C | 59% | 1048.8 hPa | 0 mm | - | 704 W/m² | - |
| 1777996343 | 22.78° C | 61% | 1048.9 hPa | 0 mm | - | 748 W/m² | - |
| 1777996039 | 23.33° C | 61% | 1049 hPa | 0 mm | - | 466 W/m² | - |
| 1777995735 | 22.78° C | 61% | 1048.7 hPa | 0 mm | - | 730 W/m² | - |
| 1777995432 | 22.78° C | 61% | 1048.8 hPa | 0 mm | - | 614 W/m² | - |
| 1777995129 | 22.78° C | 64% | 1048.4 hPa | 0 mm | - | 727 W/m² | - |
| 1777994826 | 22.22° C | 63% | 1048.6 hPa | 0 mm | - | 708 W/m² | - |
| 1777994522 | 22.22° C | 63% | 1048.7 hPa | 0 mm | - | 691 W/m² | - |
| 1777994217 | 21.67° C | 65% | 1048.7 hPa | 0 mm | - | 670 W/m² | - |
| 1777993915 | 21.67° C | 67% | 1048.7 hPa | 0 mm | - | 650 W/m² | - |
* Rain latest hour (hover to see other rain measurements)
** Current wind speed in m/s (hover to see current wind gust speed)